FW6151 Weather Reports


time (UTC)temp
F
wind
direction
speed
knots
gust
knots
rain 1hr
in
rain 24hr
in
rain mn
in
humidity
%
barometer
mb
20260506193050 51 191 0.0 0.9 0.00 0.46 0.46 91 1013.6
20260506192549 51 191 0.0 0.0 0.00 0.46 0.46 91 1013.5
20260506192053 51 191 0.0 0.0 0.00 0.46 0.46 91 1013.6
20260506191549 51 191 0.0 0.0 0.00 0.46 0.46 91 1013.6
20260506191051 51 191 0.0 0.0 0.00 0.46 0.46 91 1013.5
20260506190550 52 191 0.0 0.0 0.00 0.46 0.46 91 1013.4
20260506190048 52 191 0.0 0.0 0.01 0.46 0.46 91 1013.4
20260506185547 52 191 0.0 0.0 0.01 0.46 0.46 91 1013.3
20260506185050 52 191 0.0 0.0 0.01 0.46 0.46 91 1013.2
20260506184547 52 191 0.0 1.7 0.01 0.46 0.46 91 1013.2
20260506184046 52 191 0.0 1.7 0.02 0.46 0.46 91 1013.2
20260506183546 52 191 0.0 0.0 0.02 0.46 0.46 91 1013.2
20260506183059 52 191 0.0 0.0 0.02 0.46 0.46 90 1013.1
20260506182545 52 191 0.0 0.0 0.02 0.46 0.46 91 1013.0
20260506182045 52 191 0.0 0.0 0.02 0.46 0.46 90 1013.0
20260506181553 52 191 0.0 0.0 0.03 0.46 0.46 90 1013.0
20260506181045 52 191 0.0 0.0 0.03 0.46 0.46 90 1013.0
20260506180547 52 191 0.0 0.0 0.03 0.46 0.46 90 1013.0
20260506180044 52 191 0.0 0.0 0.02 0.53 0.45 90 1013.0
20260506175546 52 191 0.0 0.0 0.03 0.53 0.45 90 1013.0
20260506175044 52 191 0.0 0.0 0.03 0.53 0.45 90 1012.9
20260506174543 52 191 0.0 0.0 0.03 0.53 0.45 90 1012.8
20260506174043 52 191 0.0 0.0 0.02 0.52 0.44 90 1012.9
20260506173542 52 191 0.0 0.0 0.02 0.52 0.44 90 1012.8
20260506173052 53 191 0.0 0.0 0.03 0.52 0.44 90 1012.8
20260506172543 53 191 0.0 0.0 0.03 0.52 0.44 90 1012.7
20260506172042 53 191 0.0 0.0 0.03 0.52 0.44 90 1012.6
20260506171545 53 191 0.0 0.0 0.02 0.51 0.43 91 1012.6
20260506171040 53 191 0.0 0.0 0.03 0.51 0.43 91 1012.6
20260506170540 53 191 0.0 0.0 0.03 0.51 0.43 91 1012.5
20260506170044 53 191 0.0 0.0 0.03 0.51 0.43 91 1012.5
20260506165539 53 191 0.0 0.0 0.02 0.50 0.42 90 1012.5
20260506165038 53 191 0.0 0.0 0.02 0.50 0.42 90 1012.5
20260506164546 53 191 0.0 0.0 0.03 0.50 0.42 90 1012.4
20260506164037 53 191 0.0 0.0 0.03 0.50 0.42 90 1012.4
20260506163537 53 191 0.0 0.0 0.04 0.50 0.42 90 1012.3
20260506163037 53 191 0.0 0.0 0.03 0.49 0.41 90 1012.3
20260506162536 53 191 0.0 0.0 0.03 0.49 0.41 90 1012.3
20260506162036 53 191 0.0 0.0 0.03 0.49 0.41 90 1012.3
20260506161544 53 191 0.0 0.0 0.03 0.49 0.41 90 1012.3
20260506161036 53 191 0.0 0.0 0.02 0.48 0.40 90 1012.2
20260506160536 53 191 0.0 0.0 0.02 0.48 0.40 90 1012.3
20260506160043 53 191 0.0 0.0 0.02 0.48 0.40 90 1012.2
20260506155535 53 191 0.0 0.0 0.02 0.48 0.40 90 1012.3
20260506155035 53 191 0.0 0.0 0.02 0.48 0.40 90 1012.2
20260506154535 53 191 0.0 0.0 0.01 0.47 0.39 90 1012.2
20260506154035 53 191 0.0 0.0 0.01 0.47 0.39 90 1012.2
20260506153535 53 191 0.0 0.0 0.00 0.46 0.38 90 1012.1
20260506153035 53 191 0.0 0.0 0.00 0.46 0.38 89 1012.1
20260506152535 53 191 0.0 0.0 0.00 0.46 0.38 90 1012.1
20260506152038 53 191 0.0 0.0 0.01 0.46 0.38 90 1012.1
20260506151543 53 191 0.0 0.0 0.01 0.46 0.38 89 1012.0
20260506151034 53 191 0.0 0.0 0.01 0.46 0.38 89 1012.1
20260506150534 52 191 0.0 0.0 0.01 0.46 0.38 89 1012.1
20260506150034 52 191 0.0 0.0 0.01 0.46 0.38 89 1012.0
20260506145534 52 191 0.0 0.0 0.01 0.46 0.38 89 1012.0
20260506145034 52 191 0.0 0.9 0.02 0.46 0.38 89 1012.0
20260506144533 52 191 0.0 1.7 0.02 0.46 0.38 89 1011.9
20260506144041 52 191 0.0 0.9 0.02 0.46 0.38 89 1011.9
20260506143533 52 191 0.0 0.9 0.03 0.46 0.38 89 1011.9
20260506143043 52 191 0.0 0.9 0.03 0.46 0.38 89 1011.9
20260506142532 52 191 0.0 0.9 0.04 0.46 0.38 89 1011.9
20260506142032 52 191 0.0 0.9 0.03 0.45 0.37 89 1011.9
20260506141533 52 191 0.0 0.9 0.03 0.45 0.37 89 1012.0
20260506141034 52 191 0.0 0.9 0.04 0.45 0.37 88 1012.0
20260506140533 52 191 0.0 0.9 0.05 0.45 0.37 88 1012.0
20260506140036 52 191 0.0 2.6 0.05 0.45 0.37 89 1012.0
20260506135531 52 191 0.0 2.6 0.05 0.45 0.37 89 1012.0
20260506135031 52 191 0.0 0.9 0.04 0.44 0.36 88 1012.1
20260506134532 52 191 0.0 1.7 0.05 0.44 0.36 89 1012.1
20260506134033 52 191 0.0 1.7 0.06 0.44 0.36 88 1012.1
20260506133531 52 191 0.0 3.5 0.05 0.43 0.35 88 1012.0
20260506133034 52 257 0.9 3.5 0.06 0.43 0.35 88 1012.0
20260506132531 52 5 0.0 2.6 0.05 0.42 0.34 89 1012.0
20260506132031 52 46 0.0 1.7 0.06 0.42 0.34 90 1012.0
20260506131533 52 46 0.0 1.7 0.06 0.42 0.34 90 1012.0
20260506131134 52 27 0.0 2.6 0.07 0.41 0.33 90 1011.9
20260506130530 53 310 0.0 3.5 0.06 0.40 0.32 90 1011.8
20260506130032 53 238 0.0 7.0 0.08 0.40 0.32 90 1011.8
20260506125529 53 259 0.9 7.0 0.08 0.40 0.32 90 1011.7
20260506125029 53 277 0.0 5.2 0.14 0.40 0.32 90 1011.6
20260506124530 53 254 0.9 5.2 0.19 0.39 0.31 90 1011.5
20260506124029 53 186 0.9 3.5 0.18 0.38 0.30 90 1011.5
20260506123529 53 106 0.9 2.6 0.19 0.38 0.30 90 1011.5
20260506123029 53 109 0.0 1.7 0.19 0.37 0.28 90 1011.4
20260506122528 53 109 0.0 2.6 0.21 0.37 0.28 89 1011.3
20260506122028 53 109 0.0 2.6 0.22 0.36 0.28 89 1011.2
20260506121529 54 132 0.0 7.0 0.21 0.35 0.27 88 1011.2
20260506121029 54 263 0.0 7.0 0.21 0.34 0.26 88 1011.1
20260506120529 54 167 0.9 3.5 0.21 0.33 0.25 88 1011.1
20260506120031 55 182 0.9 2.6 0.20 0.32 0.24 88 1011.1
20260506115527 55 77 0.0 7.8 0.19 0.31 0.23 88 1011.0
20260506115028 56 241 3.5 7.8 0.12 0.24 0.16 88 1010.9
20260506114538 56 181 0.0 0.0 0.09 0.20 0.12 89 1010.6
20260506114027 56 181 0.0 0.0 0.09 0.20 0.12 88 1010.6
20260506113527 56 181 0.0 0.0 0.09 0.19 0.11 88 1010.5
20260506113029 56 181 0.0 0.0 0.08 0.18 0.10 87 1010.6
20260506112527 56 181 0.0 0.0 0.06 0.16 0.08 87 1010.5
20260506112025 56 181 0.0 0.0 0.04 0.14 0.06 87 1010.5
20260506111525 56 181 0.0 0.0 0.05 0.14 0.06 86 1010.6
20260506111026 56 181 0.0 0.0 0.04 0.13 0.05 86 1010.6
20260506110525 56 181 0.0 0.0 0.03 0.12 0.04 85 1010.6
20260506110024 56 181 0.0 0.0 0.03 0.12 0.04 85 1010.6
20260506105524 57 181 0.0 0.0 0.03 0.12 0.04 85 1010.6
20260506105024 57 181 0.0 0.0 0.03 0.12 0.04 85 1010.4
20260506104523 56 181 0.0 0.0 0.02 0.11 0.03 84 1010.4
20260506104023 57 181 0.0 0.0 0.02 0.11 0.03 84 1010.4
20260506103523 57 181 0.0 0.0 0.01 0.10 0.02 84 1010.3
20260506103023 57 181 0.0 0.0 0.01 0.10 0.02 84 1010.2
20260506102523 57 181 0.0 0.0 0.01 0.10 0.02 84 1010.2
20260506102023 57 181 0.0 0.0 0.01 0.10 0.02 83 1010.2
20260506101542 57 181 0.0 0.0 0.00 0.09 0.01 83 1010.2
20260506101022 57 181 0.0 0.0 0.00 0.09 0.01 82 1010.2
20260506100525 57 181 0.0 0.0 0.00 0.09 0.01 82 1010.2
20260506100021 57 181 0.0 0.0 0.00 0.09 0.01 81 1010.2
20260506095521 57 181 0.0 0.0 0.00 0.09 0.01 81 1010.2
20260506095022 57 181 0.0 1.7 0.00 0.09 0.01 81 1010.1
20260506094521 57 181 0.0 1.7 0.00 0.09 0.01 81 1010.1
20260506094022 57 181 0.0 1.7 0.00 0.09 0.01 82 1009.9
20260506093519 56 181 0.0 1.7 0.00 0.09 0.01 82 1009.9
20260506093019 56 181 0.0 1.7 0.00 0.09 0.01 83 1009.9
20260506092518 56 181 0.0 1.7 0.00 0.09 0.01 83 1009.8
20260506092019 56 181 0.0 2.6 0.00 0.09 0.01 83 1009.9
20260506091521 56 181 0.0 2.6 0.00 0.09 0.01 84 1009.9
20260506091017 56 230 0.0 2.6 0.00 0.09 0.01 86 1009.9
20260506090515 56 197 0.0 2.6 0.00 0.09 0.01 87 1009.8
20260506090015 55 197 0.0 2.6 0.00 0.09 0.01 88 1009.9
20260506085514 55 250 0.0 2.6 0.00 0.09 0.01 89 1009.9
20260506085014 55 252 0.0 2.6 0.00 0.09 0.01 90 1009.8
20260506084519 55 25 0.0 0.0 0.00 0.09 0.01 91 1009.7
20260506084013 55 25 0.0 0.0 0.00 0.09 0.01 92 1009.8
20260506083512 55 25 0.0 0.0 0.00 0.09 0.01 92 1009.7
20260506083012 55 25 0.0 0.0 0.00 0.09 0.01 92 1009.7
20260506082511 55 319 0.0 0.0 0.00 0.09 0.01 93 1009.6
20260506082016 55 291 0.0 0.0 0.00 0.09 0.01 94 1009.4
20260506081510 54 291 0.0 0.0 0.00 0.09 0.01 94 1009.4
20260506081013 54 291 0.0 0.0 0.00 0.09 0.01 94 1009.5
20260506080511 54 291 0.0 0.0 0.00 0.09 0.01 94 1009.5
20260506073505 53 272 0.0 0.0 0.00 0.10 0.01 95 1009.7
20260506073004 53 272 0.0 0.0 0.00 0.10 0.01 95 1009.6
20260506072508 53 272 0.0 0.0 0.00 0.10 0.01 95 1009.7
20260506072002 52 272 0.0 0.0 0.00 0.10 0.01 95 1009.7
20260506071613 52 272 0.0 0.0 0.00 0.10 0.01 95 1009.6
20260506071103 52 271 0.0 0.0 0.00 0.10 0.01 95 1009.6
20260506070558 52 274 0.0 0.0 0.00 0.10 0.01 95 1009.7
20260506062045 51 317 0.0 0.0 0.00 0.10 0.01 94 1009.7
20260506061544 50 315 0.0 0.0 0.00 0.10 0.01 95 1009.7
20260506061044 50 315 0.0 0.0 0.00 0.10 0.01 95 1009.7
20260506060546 50 315 0.0 0.0 0.00 0.10 0.01 94 1009.8
20260506051038 49 315 0.9 3.5 0.00 0.10 0.01 94 1009.9
20260506050537 49 310 0.0 0.9 0.00 0.10 0.01 94 1009.9
20260506045035 49 313 0.0 1.7 0.00 0.10 0.01 94 1009.7
20260506044534 49 313 0.0 2.6 0.00 0.10 0.01 94 1009.7
20260506044032 49 318 0.9 2.6 0.00 0.10 0.01 94 1009.6
20260506043534 49 315 0.0 2.6 0.00 0.10 0.01 94 1009.8
20260506043030 49 315 0.0 2.6 0.00 0.10 0.01 94 1009.9
20260506042529 49 316 0.9 2.6 0.00 0.10 0.01 94 1009.9
20260506042031 49 317 0.9 2.6 0.00 0.10 0.01 94 1009.9
20260506041532 49 317 0.9 2.6 0.00 0.10 0.01 94 1010.0
20260506041026 49 315 0.0 0.0 0.00 0.10 0.01 94 1010.1
20260506040527 49 322 0.0 0.0 0.00 0.10 0.01 94 1010.0
20260506040028 49 323 0.0 0.0 0.00 0.10 0.01 94 1010.0
20260506035524 49 323 0.0 0.0 0.00 0.10 0.01 94 1010.1
20260506035024 49 323 0.0 0.0 0.00 0.10 0.01 94 1010.1
20260506034524 50 323 0.0 0.0 0.00 0.10 0.01 94 1010.1
20260506034026 50 323 0.0 0.0 0.00 0.10 0.01 94 1010.1
20260506033523 50 323 0.0 0.0 0.00 0.10 0.01 94 1010.2
20260506033028 50 323 0.0 0.0 0.00 0.10 0.01 94 1010.2
20260506032523 50 323 0.0 0.0 0.00 0.10 0.01 94 1010.2
20260506032023 50 323 0.0 0.0 0.00 0.10 0.01 94 1010.2
20260506031526 50 323 0.0 0.9 0.00 0.10 0.01 94 1010.2
20260506031022 50 323 0.0 2.6 0.00 0.10 0.01 94 1010.4
20260506030524 50 322 0.0 2.6 0.00 0.10 0.01 94 1010.4
20260506030025 50 322 0.0 2.6 0.00 0.10 0.01 94 1010.3
20260506025519 50 322 0.0 0.9 0.00 0.10 0.01 94 1010.4
20260506025020 50 324 0.0 0.9 0.00 0.10 0.01 94 1010.4
20260506024519 50 324 0.0 2.6 0.00 0.10 0.01 94 1010.4
20260506024018 50 324 0.0 2.6 0.00 0.10 0.01 94 1010.5
20260506023517 50 248 0.0 1.7 0.00 0.10 0.01 94 1010.6
20260506023018 50 246 0.0 1.7 0.00 0.10 0.01 94 1010.5
20260506022517 50 305 0.0 1.7 0.00 0.10 0.01 94 1010.6
20260506022017 50 305 0.0 3.5 0.00 0.10 0.01 94 1010.6
20260506021517 50 309 0.0 3.5 0.00 0.10 0.01 94 1010.6
20260506021017 50 323 0.9 3.5 0.00 0.10 0.01 94 1010.5
20260506020515 50 235 0.0 4.3 0.00 0.10 0.01 94 1010.6
20260506020020 50 315 1.7 4.3 0.00 0.10 0.01 94 1010.7
20260506015514 50 306 0.0 3.5 0.00 0.10 0.01 94 1010.8
20260506015014 51 266 0.0 1.7 0.00 0.10 0.01 94 1010.8
20260506014518 51 273 0.0 1.7 0.00 0.10 0.01 94 1010.8
20260506014013 51 285 0.0 1.7 0.00 0.10 0.01 94 1010.9
20260506013513 51 290 0.0 3.5 0.00 0.10 0.01 94 1010.9
20260506013023 51 312 0.9 3.5 0.00 0.10 0.01 94 1011.0
20260506012512 51 320 0.9 3.5 0.00 0.10 0.01 94 1011.1
20260506012012 51 315 0.9 3.5 0.00 0.10 0.01 94 1011.2
20260506011511 51 313 0.0 3.5 0.00 0.10 0.01 94 1011.3
20260506011010 51 316 0.9 3.5 0.00 0.10 0.01 94 1011.3
20260506010513 51 315 1.7 3.5 0.00 0.10 0.01 94 1011.3
20260506010010 51 304 0.0 2.6 0.00 0.10 0.01 94 1011.3
20260506005510 51 317 0.0 3.5 0.00 0.10 0.01 93 1011.4
20260506005015 51 262 0.9 2.6 0.00 0.10 0.01 93 1011.5
20260506004517 51 299 0.0 3.5 0.00 0.10 0.01 93 1011.4
20260506004008 51 311 0.9 3.5 0.00 0.10 0.01 93 1011.5
20260506003510 51 309 1.7 3.5 0.00 0.10 0.01 93 1011.4
20260506003008 51 247 0.0 1.7 0.00 0.10 0.01 93 1011.4
20260506002510 51 245 0.0 3.5 0.00 0.10 0.01 93 1011.4
20260506002007 51 302 0.0 3.5 0.00 0.10 0.01 93 1011.5
20260506001508 51 240 0.0 4.3 0.00 0.10 0.01 93 1011.5
20260506001006 51 320 0.9 4.3 0.00 0.10 0.01 93 1011.5
20260506000507 51 234 0.9 3.5 0.00 0.10 0.01 93 1011.7
20260506000014 51 219 0.0 3.5 0.00 0.10 0.01 93 1011.7
20260505235508 51 317 0.9 3.5 0.00 0.10 0.01 93 1011.7
20260505235003 51 325 0.9 2.6 0.00 0.10 0.01 93 1011.8
20260505234506 51 333 0.9 3.5 0.00 0.10 0.01 93 1011.8
20260505234002 51 322 0.9 4.3 0.00 0.10 0.01 93 1011.9
20260505233503 51 316 0.9 3.5 0.00 0.10 0.01 93 1012.0
20260505233001 51 314 1.7 4.3 0.00 0.10 0.01 93 1012.0
20260505232501 51 321 1.7 4.3 0.00 0.10 0.01 93 1012.0
20260505232002 51 321 0.9 3.5 0.00 0.10 0.01 93 1012.0
20260505231502 51 285 0.0 3.5 0.00 0.10 0.01 93 1012.0
20260505231001 51 289 0.9 4.3 0.00 0.10 0.01 93 1012.0
20260505230601 51 320 1.7 4.3 0.00 0.10 0.01 93 1012.1
20260505230118 51 319 0.9 3.5 0.01 0.10 0.01 93 1012.1
20260505225559 51 319 0.9 3.5 0.01 0.10 0.01 93 1012.2
20260505225100 51 317 0.9 2.6 0.01 0.10 0.01 93 1012.2
20260505224559 51 325 0.0 3.5 0.01 0.10 0.01 93 1012.2
20260505224059 51 312 0.9 3.5 0.01 0.10 0.01 92 1012.2
20260505223558 51 238 0.0 1.7 0.01 0.10 0.01 93 1012.3
20260505223101 51 238 0.0 2.6 0.01 0.10 0.01 92 1012.1
20260505222558 51 319 0.9 4.3 0.01 0.10 0.01 92 1012.2
20260505222057 51 321 2.6 4.3 0.01 0.10 0.01 92 1012.2
20260505221600 51 312 0.9 4.3 0.01 0.10 0.01 92 1012.1
20260505221056 51 324 0.9 4.3 0.01 0.10 0.01 92 1012.2
20260505220557 51 325 0.0 3.5 0.01 0.10 0.01 92 1012.2
20260505220056 51 275 0.0 1.7 0.00 0.09 0.09 92 1012.2
20260505215554 51 284 0.0 1.7 0.00 0.09 0.09 92 1012.1
20260505215054 52 287 0.0 2.6 0.00 0.09 0.09 92 1012.2
20260505214605 52 302 0.0 3.5 0.00 0.09 0.09 92 1012.3
20260505214054 52 313 0.9 3.5 0.00 0.09 0.09 92 1012.3
20260505213553 52 301 0.9 3.5 0.00 0.09 0.09 91 1012.2
20260505213058 52 284 0.0 1.7 0.00 0.09 0.09 91 1012.3
20260505212552 52 313 0.0 2.6 0.00 0.09 0.09 91 1012.4
20260505212051 52 313 0.9 2.6 0.00 0.09 0.09 91 1012.4
20260505211557 52 310 0.0 0.0 0.00 0.09 0.09 91 1012.4
20260505211051 53 319 0.0 0.0 0.00 0.09 0.09 91 1012.5
20260505210551 53 319 0.0 0.0 0.00 0.09 0.09 91 1012.5
20260505210053 53 319 0.0 1.7 0.00 0.09 0.09 91 1012.3
20260505205551 53 319 0.0 2.6 0.00 0.09 0.09 91 1012.4
20260505205049 53 319 1.7 2.6 0.00 0.09 0.09 91 1012.4
20260505204550 53 316 0.0 2.6 0.00 0.09 0.09 90 1012.4
20260505204049 53 316 0.0 0.9 0.00 0.09 0.09 90 1012.4
20260505203549 53 316 0.0 1.7 0.00 0.09 0.09 90 1012.6
20260505203051 53 316 0.0 1.7 0.00 0.09 0.09 90 1012.5
20260505202550 54 316 0.0 0.9 0.00 0.09 0.09 90 1012.5
20260505202054 54 316 0.0 0.9 0.00 0.09 0.09 90 1012.4
20260505201554 54 316 0.0 3.5 0.00 0.09 0.09 90 1012.2
20260505201049 54 360 0.9 2.6 0.00 0.09 0.09 90 1012.1
20260505200549 54 39 0.0 0.0 0.00 0.09 0.09 89 1012.1
20260505200048 54 39 0.0 0.0 0.00 0.09 0.09 89 1012.1
20260505195548 54 39 0.0 0.0 0.00 0.09 0.09 89 1012.1
20260505195051 54 39 0.0 0.0 0.00 0.09 0.09 89 1012.0
20260505194548 54 39 0.0 0.0 0.00 0.09 0.09 89 1011.8
20260505194048 55 39 0.0 0.0 0.00 0.09 0.09 88 1011.8
20260505193550 55 39 0.0 0.0 0.00 0.09 0.09 88 1011.8